Home   Weather   Norfolk   Past weeks

Flag for USA Past Weather in Norfolk, Virginia, USA — Yesterday and Last 2 Weeks

Now
87 °F

Broken clouds.


Feels Like: 95 °F
Forecast: 79 / 91 °F
Wind: 8 mph from West

Location: Norfolk Naval Air Station

Current Time: Jul 24, 2017 at 3:02:19 pm

Latest Report: Jul 24, 2017 at 1:59 pm


Visibility: 9 mi

Pressure: 29.87 "Hg

Humidity: 63%

Dew Point: 73 °F

Location of NorfolkLocation

Past Weather in Norfolk — Graph

°F

Norfolk Temperature Yesterday

Maximum temperature yesterday: 93 °F (at 2:59 pm)
Minimum temperature yesterday: 76 °F (at 10:59 pm)
Average temperature yesterday: 85 °F

High & Low Weather Summary for the Past Weeks

 TemperatureHumidityPressure
High98 °F (Jul 14, 3:59 pm)91% (Jul 10, 4:59 am)30.13 "Hg (Jul 10, 4:59 am)
Low73 °F (Jul 18, 2:59 pm)38% (Jul 10, 1:59 pm)29.77 "Hg (Jul 23, 6:59 pm)
Average83 °F70%30.00 "Hg
* Reported Jul 9 12:59 pm — Jul 24 12:59 pm, Norfolk. Weather by CustomWeather, © 2017

Note: Actual official high and low records may vary slightly from our data, if they occured in-between our weather recording intervals... More about our weather records

Advertising

Norfolk Weather History for the Previous 24 Hours

Scroll right to see more
 ConditionsComfort  
Time TempWeatherWind HumidityBarometerVisibility
12:59 pm
Mon, Jul 24
85 °FBroken clouds.8 mph68%29.88 "Hg9 mi
11:59 am82 °FBroken clouds.10 mph72%29.88 "Hg8 mi
10:59 am81 °FCloudy.9 mph74%29.88 "Hg9 mi
9:59 am79 °FPartly sunny.12 mph77%29.85 "Hg8 mi
8:59 am80 °FBroken clouds.13 mph74%29.85 "Hg9 mi
7:59 am76 °FBroken clouds.9 mph82%29.82 "Hg9 mi
6:59 am75 °FBroken clouds.10 mph82%29.83 "Hg9 mi
5:59 am75 °FPartly cloudy.12 mph82%29.83 "Hg10 mi
4:59 am76 °FPartly cloudy.9 mph80%29.83 "Hg10 mi
3:59 am77 °FPassing clouds.7 mph77%29.83 "Hg10 mi
2:59 am78 °FPassing clouds.12 mph71%29.83 "Hg10 mi
1:59 am77 °FPassing clouds.8 mph77%29.82 "Hg10 mi
12:59 am76 °FMostly cloudy.10 mph80%29.78 "Hg10 mi
11:59 pm
Sun, Jul 23
76 °FOvercast.12 mph80%29.84 "Hg10 mi
10:59 pm76 °FPartly cloudy.10 mph74%29.86 "Hg10 mi
9:59 pm79 °FThunderstorms. Passing clouds.14 mph69%29.87 "Hg10 mi
8:59 pm82 °FThunderstorms. Passing clouds.14 mph67%29.82 "Hg10 mi
7:59 pm86 °FPartly sunny.6 mph70%29.77 "Hg7 mi
6:59 pm89 °FPartly sunny.5 mph65%29.77 "Hg7 mi
5:59 pm89 °FBroken clouds.5 mph63%29.79 "Hg7 mi
4:59 pm90 °FBroken clouds.6 mph54%29.80 "Hg10 mi
3:59 pm90 °FBroken clouds.8 mph47%29.80 "Hg9 mi
Weather by CustomWeather, © 2017

See weather overviewHow to use our weather pages